Content
SEND FEEDBACK

Daily
Averages
Monthly
Summary
Canada

PELEE ISLAND, ONTARIO


Home > North America > Canada > Ontario
Elevation: 571 feet     Latitude: 41 46N     Longitude: 082 40W

WEATHER
 
SELECT A DAY
Number of Records: 125,379;   Date Range: 12/10/00 - 12/19/14
 
SHARE

PRINT THIS DATA

[ ← Previous Day ]
WEATHER ALMANAC - JULY 21, 2013
[ Next Day → ]
[ °C ]   °F
Weather ElementAverageHighLow
Temperature72.2 °F79 °F (3:00 pm)65.3 °F (7:00 am)
Dewpoint61.4 °F66.2 °F (7:00 pm)53.4 °F (7:00 am)
Humidity68.4 %88 % (1:00 am)46 % (2:00 pm)
Barometer29.93 in29.98 in (12:00 pm)29.89 in (1:00 am)
Wind Speed3.9 mph6.9 mph (10:00 am)
Weather ElementAverage
Wind DirectionENE (67 °)

Weather ElementTotal
Precipitation---
Cooling Degree Days7.2 (Base 65)
Growing Degree Days22.2 (Base 50)
Averaged from 27 records on July 21, 2013
WEATHER CONDITIONS BREAKOUT
WIND DIRECTION BREAKOUT
WEATHER BY HOUR - JULY 21, 2013
[ °C ]   °F
Local TimeTemperatureDewpointHumidityBarometerVisibilityWind DirectionWind SpeedGust SpeedPrecipitationEventsConditions
1:00 AM68.7 °F65.1 °F88 %29.89 inNNE (20°)3.5 mph
2:00 AM68.0 °F64.0 °F84 %29.89 inNE (40°)4.6 mph
2:00 AM68.2 °F64.2 °F87 %29.89 inNE (40°)4.6 mph
3:00 AM67.5 °F63.0 °F85 %29.89 inNNE (20°)3.5 mph
4:00 AM67.3 °F61.3 °F81 %29.90 inNE (40°)3.5 mph
5:00 AM66.6 °F60.1 °F80 %29.90 inNE (50°)3.5 mph
6:00 AM65.7 °F58.1 °F77 %29.92 inNE (40°)3.5 mph
7:00 AM65.3 °F53.4 °F65 %29.94 inNE (50°)5.8 mph
8:00 AM68.0 °F54.0 °F50 %29.95 inNE (50°)5.8 mph
8:00 AM67.8 °F53.6 °F60 %29.95 inNE (50°)5.8 mph
9:00 AM68.4 °F54.7 °F62 %29.96 inNE (40°)4.6 mph
10:00 AM72.0 °F54.7 °F54 %29.96 inNE (50°)6.9 mph
11:00 AM73.9 °F57.2 °F56 %29.97 inNE (50°)4.6 mph
12:00 PM75.7 °F59.7 °F57 %29.98 inNNE (30°)4.6 mph
1:00 PM76.8 °F61.9 °F60 %29.97 inNE (50°)3.5 mph
2:00 PM78.0 °F61.0 °F46 %29.96 inENE (70°)2.3 mph
2:00 PM78.1 °F60.8 °F55 %29.96 inENE (70°)2.3 mph
3:00 PM79.0 °F62.2 °F56 %29.94 inNE (40°)3.5 mph
4:00 PM77.5 °F65.3 °F66 %29.94 inSouth (190°)4.6 mph
5:00 PM78.6 °F65.5 °F64 %29.93 inSouth (180°)3.5 mph
6:00 PM77.9 °F65.3 °F65 %29.91 inSSE (150°)5.8 mph
7:00 PM76.6 °F66.2 °F70 %29.90 inSE (130°)4.6 mph
8:00 PM76.0 °F65.0 °F62 %29.91 inSE (140°)4.6 mph
8:00 PM75.6 °F65.5 °F71 %29.91 inSE (140°)4.6 mph
9:00 PM72.1 °F65.8 °F80 %29.91 inEast (80°)1.2 mph
10:00 PM70.9 °F64.8 °F81 %29.93 inCalm
11:00 PM69.4 °F64.6 °F84 %29.93 inCalm
Hourly data recorded from CXHA, located miles away from Pelee Island, Ontario







STORIES FROM OUR PARTNERS